Terminal Aerodrome Forecast
Issued by NWS

Home | Current Version | Previous Version | Text Only | Print | Product List | Glossary On
Versions: 1 2 3 4 5 6 7 8 9 10 11 12 13 14
000
FTUS46 KSTO 042037 AAA
TAFRBL
TAF AMD
KRBL 042037Z 0421/0518 18010G17KT P6SM SKC
     FM050200 32012G18KT P6SM SKC=

USA.gov is the U.S. government's official web portal to all federal, state and local government web resources and services.